User: anonymous   Login
Location: Unspecified
(0.0000°N, 0.0000°E)
Time: 23:30:10
(UTC+00:00)
Language:

USA 157 - Orbit

View from above orbital plane
View from above orbital plane
View from above satellite
View from above satellite

Ground track
Ground track

The orbit data is extracted from the following two-line orbital elements,

1 26715U 01009A   17327.61554514 0.00000000  00000-0  00000-0 0    05
2 26715   8.4269  35.2383 0002915 103.4225 256.6633  1.00270000    01
Epoch (UTC): 23 November 2017 14:46:23
Eccentricity: 0.0002915
inclination: 8.4269°
perigee height: 35774 km
apogee height: 35799 km
right ascension of ascending node: 35.2383°
argument of perigee: 103.4225°
revolutions per day: 1.00270000
mean anomaly at epoch: 256.6633°
orbit number at epoch: 0

The dashed part of the orbit path shows where the satellite is in the earth's shadow,  

DLR